Regional Weather Roundup
Issued by NWS Northern Indiana

Home | Current Version | Previous Version | Text Only | Print | Product List | Glossary Off
Versions: 1 2 3 4 5 6 7 8 9 10 11 12 13 14 15 16 17 18 19 20 21 22 23 24 25 26 27 28 29 30 31 32 33 34 35 36 37 38 39 40 41 42 43 44 45 46 47 48 49 50

000
ASUS43 KIWX 280600
RWRIWX

KIWX WEATHER ROUNDUP
NATIONAL WEATHER SERVICE NORTHERN INDIANA
200 AM EDT SAT MAY 28 2016

NOTE: "FAIR" INDICATES FEW OR NO CLOUDS BELOW 12,000 FEET WITH NO
SIGNIFICANT WEATHER AND/OR OBSTRUCTIONS TO VISIBILITY.

* THESE STATIONS ARE NOT UNDER NWS QUALITY CONTROL. THEY ALSO MAY NOT
  REPORT WEATHER SUCH AS PRECIPITATION OR FOG.

INZ001>027-280700-
NORTHERN INDIANA

CITY           SKY/WX    TMP DP  RH WIND       PRES   REMARKS
SOUTH BEND     CLOUDY    70  64  81 S7        29.94F
6HR MIN TEMP:  69; 6HR MAX TEMP:  73;

GOSHEN         CLOUDY    73  58  59 SE9       29.95S
6HR MIN TEMP:  73; 6HR MAX TEMP:  81;

ANGOLA*          N/A     70  63  78 S3        29.98S
FORT WAYNE     PTCLDY    71  62  73 S8        29.98F
6HR MIN TEMP:  71; 6HR MAX TEMP:  83;

PERU/GRISSOM   CLOUDY    74  62  66 S8        29.94F
6HR MIN TEMP:  73; 6HR MAX TEMP:  83;


$$
INZ028>050-280700-
CENTRAL INDIANA

CITY           SKY/WX    TMP DP  RH WIND       PRES   REMARKS
LAFAYETTE      PTCLDY    69  65  86 SE3       29.92F
6HR MIN TEMP:  68; 6HR MAX TEMP:  80; 6HR PCP: TRACE;

KOKOMO*        MOCLDY    72  59  64 S8        29.96S
6HR MIN TEMP:  72; 6HR MAX TEMP:  82;

MUNCIE*        CLEAR     75  63  66 S6        29.99F
6HR MIN TEMP:  75; 6HR MAX TEMP:  85;

INDIANAPOLIS   MOCLDY    74  63  68 SE9       29.94F
6HR MIN TEMP:  74; 6HR MAX TEMP:  81;


$$
MIZ043>046-050>051-056>058-064>065-071>073-077>080-280700-
SOUTHWEST LOWER MICHIGAN

CITY           SKY/WX    TMP DP  RH WIND       PRES   REMARKS
BATTLE CREEK   CLOUDY    73  60  63 S8        29.96F
6HR MIN TEMP:  72; 6HR MAX TEMP:  80;

BENTON HARBOR  CLOUDY    71  65  81 SE6       29.92F
6HR MIN TEMP:  70; 6HR MAX TEMP:  72; 6HR PCP:  0.01;

COLDWATER*     PTCLDY    73  60  61 S7        29.97S
6HR MIN TEMP:  71; 6HR MAX TEMP:  80;

HILLSDALE*     CLEAR     73  55  53 S7        30.00S
6HR MIN TEMP:  73; 6HR MAX TEMP:  80;

HOLLAND        CLOUDY    69  66  90 SE6       29.92F
6HR MIN TEMP:  69; 6HR MAX TEMP:  72; 6HR PCP:  0.01;

GRAND RAPIDS   CLOUDY    71  65  81 S6        29.93F
6HR MIN TEMP:  71; 6HR MAX TEMP:  79; 6HR PCP: TRACE;

KALAMAZOO      CLOUDY    72  58  61 S5        29.95S
6HR MIN TEMP:  71; 6HR MAX TEMP:  82;

STURGIS*       CLOUDY    73  59  62 S9        29.95F
6HR MIN TEMP:  72; 6HR MAX TEMP:  81;

THREE RIVERS*  FAIR      74  58  58 S6        29.95S
6HR MIN TEMP:  73; 6HR MAX TEMP:  82;


$$
OHZ001>008-015>018-024>025-280700-
NORTHWEST OHIO

CITY           SKY/WX    TMP DP  RH WIND       PRES   REMARKS
DEFIANCE       CLEAR     73  61  65 S5        29.99S
6HR MIN TEMP:  73; 6HR MAX TEMP:  86;

FINDLAY        PTCLDY    71  59  65 S7        30.01S
6HR MIN TEMP:  71; 6HR MAX TEMP:  85;

TOLEDO EXPRESS CLEAR     73  60  63 S6        29.99S
6HR MIN TEMP:  69; 6HR MAX TEMP:  81;

TOLEDO METCALF CLEAR     74  60  61 SW7       30.00S
6HR MIN TEMP:  73; 6HR MAX TEMP:  81;

LIMA           CLEAR     70  60  70 S6        30.02S
6HR MIN TEMP:  69; 6HR MAX TEMP:  83;


$$
AND FOR LAKE MICHIGAN COASTAL AND OPEN LAKE BUOY OBSERVATIONS

STATION/POSITION TEMP    WIND        PRES    VSBY  WAVE
                 AIR SEA DIR/SP/G                  HT/PER
                 (F)     (DEG/KT/KT) (MB)    (MI)  (FT/S)
CALUMET HARBOR    71     180/  9/ 14 1011.4F
MICHIGAN CITY     71     160/ 11/ 13   N/A
BURNS HARBOR      70     180/  9/ 22 1012.9F
SAINT JOSEPH      72     170/  4/  7 1014.2F
SOUTH LAKE BUOY   56 50  150/ 10/ 12 1011.7          1/ 3
4 MI NW BRIDGMAN  66 62  170/  8/ 10   N/A           1
MICHIGAN CITY     66 58  200/ 10/ 12   N/A           1/ 2

$$
&&




USA.gov is the U.S. government's official web portal to all federal, state and local government web resources and services.